KC0AFB Weather Reports


Display with metric or nautical units.
time (UTC)temp
F
wind
direction
speed
MPH
gust
MPH
rain 1hr
in
rain 24hr
in
rain mn
in
humidity
%
barometer
mb
20260508233753 68 287 6.0 8.0 0.00 0.00 0.00 33 1005.6
20260508233251 68 293 10.0 10.0 0.00 0.00 0.00 32 1005.2
20260508232748 69 302 9.0 11.0 0.00 0.00 0.00 33 1005.5
20260508232244 68 268 8.0 9.0 0.00 0.00 0.00 33 1005.1
20260508231743 68 282 5.0 7.0 0.00 0.00 0.00 33 1005.7
20260508231239 67 289 5.0 7.0 0.00 0.00 0.00 34 1005.6
20260508230736 68 275 7.0 10.0 0.00 0.00 0.00 33 1005.8
20260508230232 68 268 7.0 9.0 0.00 0.00 0.00 33 1005.7
20260508225730 69 269 11.0 14.0 0.00 0.00 0.00 31 1006.0
20260508225226 69 273 8.0 9.0 0.00 0.00 0.00 33 1005.7
20260508224724 70 295 14.0 20.0 0.00 0.00 0.00 31 1006.0
20260508224221 71 330 9.0 11.0 0.00 0.00 0.00 30 1005.9
20260508223719 71 206 8.0 9.0 0.00 0.00 0.00 31 1006.1
20260508223216 70 278 8.0 9.0 0.00 0.00 0.00 33 1006.1
20260508222713 68 253 11.0 13.0 0.00 0.00 0.00 31 1006.3
20260508222211 69 308 11.0 13.0 0.00 0.00 0.00 32 1006.5
20260508221707 69 284 9.0 10.0 0.00 0.00 0.00 31 1006.3
20260508221203 71 277 8.0 10.0 0.00 0.00 0.00 31 1006.2
20260508220659 71 289 10.0 13.0 0.00 0.00 0.00 31 1006.5
20260508220156 70 297 11.0 14.0 0.00 0.00 0.00 30 1006.6
20260508215652 69 314 13.0 18.0 0.00 0.00 0.00 31 1006.8
20260508215149 69 303 7.0 9.0 0.00 0.00 0.00 32 1006.7
20260508214646 69 294 10.0 14.0 0.00 0.00 0.00 33 1007.0
20260508214143 69 322 12.0 14.0 0.00 0.00 0.00 33 1007.1
20260508213640 70 257 11.0 13.0 0.00 0.00 0.00 32 1007.0
20260508213136 70 313 8.0 10.0 0.00 0.00 0.00 33 1007.2
20260508212633 69 305 11.0 13.0 0.00 0.00 0.00 32 1007.1
20260508212129 70 286 6.0 8.0 0.00 0.00 0.00 36 1007.2
20260508211624 69 294 10.0 13.0 0.00 0.00 0.00 34 1007.5
20260508211121 69 289 12.0 16.0 0.00 0.00 0.00 34 1007.4
20260508210618 68 312 11.0 14.0 0.00 0.00 0.00 34 1007.7
20260508210115 70 322 11.0 13.0 0.00 0.00 0.00 33 1007.6
20260508205612 70 299 11.0 14.0 0.00 0.00 0.00 34 1007.6
20260508205108 69 292 15.0 21.0 0.00 0.00 0.00 34 1007.7
20260508204604 68 258 11.0 13.0 0.00 0.00 0.00 35 1007.8
20260508204100 69 298 12.0 15.0 0.00 0.00 0.00 34 1007.9
20260508203551 68 298 13.0 15.0 0.00 0.00 0.00 34 1007.8
20260508203047 66 344 9.0 11.0 0.00 0.00 0.00 34 1008.0
20260508202544 67 325 11.0 14.0 0.00 0.00 0.00 34 1008.1
20260508202041 66 276 10.0 11.0 0.00 0.00 0.00 36 1008.0
20260508201538 66 313 8.0 9.0 0.00 0.00 0.00 36 1008.1
20260508201034 67 303 10.0 10.0 0.00 0.00 0.00 35 1008.1
20260508200532 69 288 13.0 15.0 0.00 0.00 0.00 34 1008.3
20260508200027 68 326 11.0 14.0 0.00 0.00 0.00 35 1008.2
20260508195524 67 10 9.0 10.0 0.00 0.00 0.00 35 1008.2
20260508195020 69 309 9.0 9.0 0.00 0.00 0.00 35 1008.3
20260508194518 68 268 13.0 17.0 0.00 0.00 0.00 36 1008.2
20260508194015 68 297 10.0 16.0 0.00 0.00 0.00 36 1008.4
20260508193511 67 303 11.0 17.0 0.00 0.00 0.00 35 1008.3
20260508193008 66 318 14.0 18.0 0.00 0.00 0.00 37 1008.3
20260508192504 67 292 12.0 14.0 0.00 0.00 0.00 36 1008.4
20260508192001 66 299 8.0 10.0 0.00 0.00 0.00 36 1008.5
20260508191458 66 320 6.0 9.0 0.00 0.00 0.00 39 1008.6
20260508190955 65 304 12.0 14.0 0.00 0.00 0.00 37 1008.6
20260508190452 66 5 7.0 9.0 0.00 0.00 0.00 38 1008.6
20260508185948 66 338 11.0 14.0 0.00 0.00 0.00 37 1008.6
20260508185446 66 322 17.0 20.0 0.00 0.00 0.00 35 1008.8
20260508184943 67 350 9.0 10.0 0.00 0.00 0.00 37 1008.8
20260508184441 67 313 8.0 9.0 0.00 0.00 0.00 37 1008.8
20260508183937 66 306 10.0 14.0 0.00 0.00 0.00 36 1008.8
20260508183434 66 323 8.0 13.0 0.00 0.00 0.00 38 1008.9
20260508182929 66 329 13.0 17.0 0.00 0.00 0.00 37 1008.7
20260508182426 66 290 14.0 16.0 0.00 0.00 0.00 36 1008.8
20260508181921 65 39 10.0 11.0 0.00 0.00 0.00 37 1008.9
20260508181418 66 326 15.0 18.0 0.00 0.00 0.00 36 1008.7
20260508180916 65 339 11.0 15.0 0.00 0.00 0.00 36 1008.9
20260508180412 66 3 10.0 13.0 0.00 0.00 0.00 36 1008.8
20260508175908 65 303 10.0 13.0 0.00 0.00 0.00 36 1008.9
20260508175405 66 2 19.0 23.0 0.00 0.00 0.00 34 1009.0
20260508174903 65 12 9.0 10.0 0.00 0.00 0.00 36 1009.0
20260508174400 65 344 14.0 18.0 0.00 0.00 0.00 36 1009.0
20260508173856 65 8 15.0 18.0 0.00 0.00 0.00 36 1009.0
20260508173354 65 320 16.0 23.0 0.00 0.00 0.00 36 1009.0
20260508172849 65 314 11.0 15.0 0.00 0.00 0.00 36 1009.3
20260508172347 64 294 10.0 13.0 0.00 0.00 0.00 37 1008.9
20260508171843 64 313 15.0 18.0 0.00 0.00 0.00 36 1009.0
20260508171339 64 338 8.0 10.0 0.00 0.00 0.00 36 1009.3
20260508170836 64 356 11.0 11.0 0.00 0.00 0.00 37 1009.6
20260508170335 64 293 13.0 17.0 0.00 0.00 0.00 36 1009.4
20260508165831 63 317 9.0 13.0 0.00 0.00 0.00 37 1009.5
20260508165328 63 327 11.0 15.0 0.00 0.00 0.00 37 1009.5
20260508164824 63 356 11.0 14.0 0.00 0.00 0.00 37 1009.4
20260508164321 63 291 9.0 13.0 0.00 0.00 0.00 38 1009.5
20260508163819 63 288 10.0 17.0 0.00 0.00 0.00 39 1009.3
20260508163316 63 306 10.0 13.0 0.00 0.00 0.00 39 1009.2
20260508162812 62 3 7.0 9.0 0.00 0.00 0.00 39 1009.2
20260508162309 62 298 8.0 10.0 0.00 0.00 0.00 40 1009.2
20260508161806 62 312 9.0 11.0 0.00 0.00 0.00 40 1009.0
20260508161303 62 314 7.0 7.0 0.00 0.00 0.00 40 1009.3
20260508160801 62 351 8.0 13.0 0.00 0.00 0.00 41 1009.3
20260508160259 61 314 16.0 21.0 0.00 0.00 0.00 40 1009.3
20260508155755 61 303 12.0 14.0 0.00 0.00 0.00 40 1009.2
20260508155252 60 316 8.0 10.0 0.00 0.00 0.00 42 1009.4
20260508154749 60 353 12.0 15.0 0.00 0.00 0.00 41 1008.9
20260508154247 60 307 12.0 14.0 0.00 0.00 0.00 40 1009.2
20260508153743 60 345 12.0 14.0 0.00 0.00 0.00 41 1008.9
20260508153241 60 319 9.0 10.0 0.00 0.00 0.00 42 1009.4
20260508152737 59 332 12.0 15.0 0.00 0.00 0.00 41 1009.3
20260508152233 60 292 9.0 11.0 0.00 0.00 0.00 41 1009.3
20260508151729 59 300 11.0 13.0 0.00 0.00 0.00 41 1009.3
20260508151226 58 3 11.0 13.0 0.00 0.00 0.00 40 1009.4
20260508150723 59 340 12.0 15.0 0.00 0.00 0.00 40 1009.2
20260508150219 59 348 11.0 16.0 0.00 0.00 0.00 40 1009.0
20260508145715 59 348 6.0 7.0 0.00 0.00 0.00 41 1009.3
20260508145211 58 327 8.0 10.0 0.00 0.00 0.00 42 1009.2
20260508144709 57 318 9.0 10.0 0.00 0.00 0.00 41 1009.3
20260508144207 58 285 5.0 7.0 0.00 0.00 0.00 42 1009.0
20260508143704 57 304 7.0 8.0 0.00 0.00 0.00 42 1009.2
20260508143201 57 300 9.0 10.0 0.00 0.00 0.00 41 1009.3
20260508142657 56 294 6.0 7.0 0.00 0.00 0.00 40 1009.0
20260508142154 56 310 6.0 7.0 0.00 0.00 0.00 41 1008.8
20260508141650 56 326 5.0 6.0 0.00 0.00 0.00 42 1008.9
20260508141148 54 305 3.0 3.0 0.00 0.00 0.00 45 1009.2
20260508140646 54 292 5.0 7.0 0.00 0.00 0.00 45 1009.0
20260508140142 53 265 3.0 3.0 0.00 0.00 0.00 47 1008.9
20260508135638 53 246 3.0 5.0 0.00 0.00 0.00 45 1008.7
20260508135134 52 301 6.0 7.0 0.00 0.00 0.00 44 1008.7
20260508134631 50 314 2.0 2.0 0.00 0.00 0.00 48 1008.6
20260508134128 50 298 3.0 3.0 0.00 0.00 0.00 48 1008.7
20260508133624 49 297 3.0 5.0 0.00 0.00 0.00 50 1008.6
20260508133122 48 300 4.0 6.0 0.00 0.00 0.00 49 1008.4
20260508132620 48 318 4.0 5.0 0.00 0.00 0.00 50 1008.2
20260508132116 47 296 3.0 3.0 0.00 0.00 0.00 50 1008.3
20260508131612 47 199 3.0 3.0 0.00 0.00 0.00 51 1008.0
20260508131109 47 204 2.0 3.0 0.00 0.00 0.00 53 1007.8
20260508130605 47 224 2.0 2.0 0.00 0.00 0.00 51 1008.2
20260508125557 46 133 0.0 0.0 0.00 0.00 0.00 52 1007.9
20260508125056 46 177 1.0 1.0 0.00 0.00 0.00 50 1007.8
20260508124553 45 69 0.0 1.0 0.00 0.00 0.00 50 1008.0
20260508124050 45 66 1.0 1.0 0.00 0.00 0.00 51 1007.9
20260508123549 44 42 1.0 1.0 0.00 0.00 0.00 51 1007.8
20260508123045 43 59 0.0 0.0 0.00 0.00 0.00 50 1007.6
20260508122541 42 70 0.0 0.0 0.00 0.00 0.00 50 1007.6
20260508122039 42 88 0.0 0.0 0.00 0.00 0.00 52 1007.5
20260508121537 42 69 0.0 0.0 0.00 0.00 0.00 52 1007.6
20260508121035 41 64 0.0 0.0 0.00 0.00 0.00 56 1007.6
20260508120532 41 113 0.0 0.0 0.00 0.00 0.00 56 1007.6
20260508120030 41 101 0.0 0.0 0.00 0.00 0.00 56 1007.7
20260508115527 41 88 0.0 0.0 0.00 0.00 0.00 60 1007.7
20260508115024 41 143 2.0 2.0 0.00 0.00 0.00 53 1007.6
20260508114521 41 79 0.0 0.0 0.00 0.00 0.00 57 1007.6
20260508114017 41 48 1.0 1.0 0.00 0.00 0.00 53 1007.6
20260508113515 41 22 2.0 2.0 0.00 0.00 0.00 58 1007.8
20260508113012 41 263 1.0 1.0 0.00 0.00 0.00 53 1007.7
20260508112508 41 45 1.0 1.0 0.00 0.00 0.00 51 1007.8
20260508112005 41 19 1.0 1.0 0.00 0.00 0.00 52 1008.2
20260508111502 40 63 0.0 1.0 0.00 0.00 0.00 56 1007.8
20260508110959 41 139 0.0 1.0 0.00 0.00 0.00 54 1007.8
20260508110457 42 41 0.0 1.0 0.00 0.00 0.00 50 1007.9
20260508105956 42 352 3.0 3.0 0.00 0.00 0.00 49 1007.8
20260508105453 42 33 0.0 0.0 0.00 0.00 0.00 53 1008.0
20260508104950 42 25 0.0 0.0 0.00 0.00 0.00 51 1007.9
20260508104448 42 50 0.0 0.0 0.00 0.00 0.00 50 1007.9
20260508103944 42 66 0.0 0.0 0.00 0.00 0.00 50 1007.9
20260508103442 41 62 1.0 1.0 0.00 0.00 0.00 54 1007.7
20260508102938 41 69 1.0 1.0 0.00 0.00 0.00 55 1007.7
20260508102437 41 64 1.0 1.0 0.00 0.00 0.00 54 1008.1
20260508101933 42 92 1.0 1.0 0.00 0.00 0.00 53 1007.9
20260508101431 43 92 0.0 0.0 0.00 0.00 0.00 52 1007.8
20260508100928 43 61 0.0 0.0 0.00 0.00 0.00 50 1007.9
20260508100427 42 13 3.0 3.0 0.00 0.00 0.00 49 1008.1
20260508095923 41 28 2.0 2.0 0.00 0.00 0.00 51 1008.1
20260508095421 42 356 2.0 2.0 0.00 0.00 0.00 51 1008.2
20260508094917 42 63 0.0 0.0 0.00 0.00 0.00 50 1008.1
20260508094414 42 77 0.0 0.0 0.00 0.00 0.00 54 1008.1
20260508093910 43 76 0.0 0.0 0.00 0.00 0.00 50 1008.0
20260508093408 42 76 0.0 0.0 0.00 0.00 0.00 47 1008.1
20260508092905 42 76 0.0 1.0 0.00 0.00 0.00 49 1008.2
20260508092403 42 76 0.0 0.0 0.00 0.00 0.00 49 1008.0
20260508091902 41 64 1.0 1.0 0.00 0.00 0.00 50 1007.9
20260508091358 41 58 1.0 1.0 0.00 0.00 0.00 50 1008.1
20260508090855 42 34 1.0 1.0 0.00 0.00 0.00 50 1008.1
20260508090354 44 34 1.0 1.0 0.00 0.00 0.00 46 1008.2
20260508085849 45 15 1.0 2.0 0.00 0.00 0.00 44 1008.0
20260508085346 44 58 1.0 1.0 0.00 0.00 0.00 44 1008.2
20260508084843 43 60 1.0 1.0 0.00 0.00 0.00 46 1008.1
20260508084339 41 59 2.0 2.0 0.00 0.00 0.00 50 1008.1
20260508083837 42 74 0.0 0.0 0.00 0.00 0.00 50 1008.0
20260508083335 41 68 1.0 1.0 0.00 0.00 0.00 51 1008.0
20260508082834 42 81 0.0 1.0 0.00 0.00 0.00 52 1008.3
20260508082332 43 60 0.0 1.0 0.00 0.00 0.00 47 1008.4
20260508081829 42 48 1.0 1.0 0.00 0.00 0.00 47 1008.5
20260508081326 42 59 2.0 2.0 0.00 0.00 0.00 48 1008.4
20260508080823 42 65 1.0 2.0 0.00 0.00 0.00 49 1008.5
20260508080321 43 60 2.0 2.0 0.00 0.00 0.00 47 1008.7
20260508075817 43 55 2.0 2.0 0.00 0.00 0.00 47 1008.7
20260508075314 43 47 1.0 1.0 0.00 0.00 0.00 47 1008.7
20260508074812 44 51 1.0 1.0 0.00 0.00 0.00 46 1008.7
20260508074309 46 32 2.0 2.0 0.00 0.00 0.00 43 1008.8
20260508073806 46 7 2.0 2.0 0.00 0.00 0.00 43 1008.6
20260508073304 46 10 2.0 2.0 0.00 0.00 0.00 43 1008.7
20260508072800 44 41 1.0 1.0 0.00 0.00 0.00 45 1008.5
20260508072257 45 56 1.0 1.0 0.00 0.00 0.00 46 1008.6
20260508071754 44 55 1.0 1.0 0.00 0.00 0.00 45 1008.7
20260508071252 44 59 2.0 2.0 0.00 0.00 0.00 46 1008.6
20260508070749 45 73 0.0 0.0 0.00 0.00 0.00 46 1008.6
20260508070248 44 64 1.0 1.0 0.00 0.00 0.00 46 1008.9
20260508065744 45 113 0.0 0.0 0.00 0.00 0.00 45 1008.6
20260508065243 46 133 0.0 1.0 0.00 0.00 0.00 43 1008.8
20260508064740 46 132 0.0 1.0 0.00 0.00 0.00 43 1009.0
20260508064238 47 133 0.0 1.0 0.00 0.00 0.00 44 1008.9
20260508063735 47 103 1.0 1.0 0.00 0.00 0.00 42 1008.9
20260508063233 48 120 2.0 2.0 0.00 0.00 0.00 42 1008.8
20260508062730 48 132 3.0 5.0 0.00 0.00 0.00 41 1008.7
20260508062228 48 143 4.0 5.0 0.00 0.00 0.00 41 1008.7
20260508061724 48 128 4.0 5.0 0.00 0.00 0.00 40 1008.7
20260508061222 48 109 2.0 2.0 0.00 0.00 0.00 41 1008.9
20260508060718 48 115 3.0 3.0 0.00 0.00 0.00 41 1008.7
20260508060216 48 133 3.0 3.0 0.00 0.00 0.00 41 1008.7
20260508055711 48 124 2.0 2.0 0.00 0.00 0.00 40 1008.8
20260508055208 49 101 2.0 2.0 0.00 0.00 0.00 39 1008.8
20260508054705 49 126 3.0 3.0 0.00 0.00 0.00 40 1009.0
20260508054203 49 140 3.0 3.0 0.00 0.00 0.00 39 1008.9
20260508053659 50 138 3.0 3.0 0.00 0.00 0.00 38 1008.8
20260508053157 50 95 3.0 3.0 0.00 0.00 0.00 37 1009.3
20260508052654 50 92 4.0 5.0 0.00 0.00 0.00 37 1009.0
20260508052151 51 131 3.0 5.0 0.00 0.00 0.00 36 1009.3
20260508051647 50 98 5.0 6.0 0.00 0.00 0.00 37 1009.0
20260508051143 50 130 4.0 5.0 0.00 0.00 0.00 38 1008.8
20260508050639 51 102 4.0 5.0 0.00 0.00 0.00 36 1008.9
20260508050137 51 119 3.0 3.0 0.00 0.00 0.00 36 1008.7
20260508045632 51 76 2.0 3.0 0.00 0.00 0.00 37 1008.8
20260508045130 51 78 6.0 7.0 0.00 0.00 0.00 36 1009.0
20260508044627 51 90 5.0 6.0 0.00 0.00 0.00 36 1008.8
20260508044123 51 61 4.0 6.0 0.00 0.00 0.00 37 1009.0
20260508043620 51 56 5.0 7.0 0.00 0.00 0.00 37 1009.2
20260508043118 50 65 5.0 7.0 0.00 0.00 0.00 37 1009.0
20260508042614 50 71 4.0 5.0 0.00 0.00 0.00 37 1009.2
20260508042112 50 56 4.0 6.0 0.00 0.00 0.00 37 1009.3
20260508041607 50 39 4.0 5.0 0.00 0.00 0.00 37 1009.3
20260508041104 51 51 4.0 5.0 0.00 0.00 0.00 36 1009.6
20260508040601 52 26 4.0 5.0 0.00 0.00 0.00 35 1009.7
20260508040059 52 47 4.0 5.0 0.00 0.00 0.00 35 1009.4
20260508035555 52 45 2.0 2.0 0.00 0.00 0.00 34 1009.5
20260508035053 53 33 2.0 2.0 0.00 0.00 0.00 34 1009.5
20260508034549 53 52 2.0 2.0 0.00 0.00 0.00 34 1009.7
20260508034047 51 20 2.0 2.0 0.00 0.00 0.00 36 1009.7
20260508033544 51 49 1.0 1.0 0.00 0.00 0.00 37 1009.7
20260508033043 50 49 1.0 1.0 0.00 0.00 0.00 38 1009.5
20260508032538 51 201 1.0 1.0 0.00 0.00 0.00 39 1009.6
20260508032036 52 65 0.0 0.0 0.00 0.00 0.00 35 1009.5
20260508031533 51 30 1.0 1.0 0.00 0.00 0.00 35 1009.5
20260508031029 52 52 0.0 1.0 0.00 0.00 0.00 35 1009.6
20260508030526 52 40 1.0 1.0 0.00 0.00 0.00 35 1009.5
20260508030024 52 26 1.0 1.0 0.00 0.00 0.00 35 1009.4
20260508025519 51 58 0.0 1.0 0.00 0.00 0.00 35 1009.4
20260508025017 51 62 0.0 0.0 0.00 0.00 0.00 36 1009.3
20260508024513 51 58 0.0 0.0 0.00 0.00 0.00 35 1009.5
20260508024010 51 58 0.0 0.0 0.00 0.00 0.00 36 1009.4
20260508023506 51 53 0.0 1.0 0.00 0.00 0.00 36 1009.0
20260508023004 52 44 0.0 0.0 0.00 0.00 0.00 36 1009.4
20260508022459 53 17 1.0 1.0 0.00 0.00 0.00 36 1009.0
20260508021956 53 46 1.0 1.0 0.00 0.00 0.00 36 1008.9
20260508021452 53 43 0.0 1.0 0.00 0.00 0.00 36 1009.0
20260508020948 53 27 1.0 2.0 0.00 0.00 0.00 35 1009.0
20260508020446 54 27 2.0 2.0 0.00 0.00 0.00 35 1008.9
20260508015943 54 31 1.0 1.0 0.00 0.00 0.00 35 1008.7
20260508015441 54 54 1.0 1.0 0.00 0.00 0.00 35 1008.8
20260508014937 54 45 1.0 1.0 0.00 0.00 0.00 35 1008.8
20260508014434 54 39 1.0 2.0 0.00 0.00 0.00 36 1008.8
20260508013930 54 22 1.0 1.0 0.00 0.00 0.00 36 1008.6
20260508013426 54 23 2.0 2.0 0.00 0.00 0.00 36 1008.7
20260508012924 55 24 1.0 1.0 0.00 0.00 0.00 35 1008.6
20260508012420 56 335 3.0 3.0 0.00 0.00 0.00 34 1008.7
20260508011918 57 22 1.0 2.0 0.00 0.00 0.00 33 1008.6
20260508011416 57 356 3.0 3.0 0.00 0.00 0.00 32 1008.6
20260508010913 57 347 3.0 3.0 0.00 0.00 0.00 33 1008.6
20260508010410 58 343 2.0 3.0 0.00 0.00 0.00 33 1008.6
20260508005907 58 352 5.0 6.0 0.00 0.00 0.00 31 1008.6
20260508005404 59 336 4.0 5.0 0.00 0.00 0.00 31 1008.4
20260508004900 59 352 5.0 5.0 0.00 0.00 0.00 30 1008.4
20260508004356 60 338 3.0 3.0 0.00 0.00 0.00 30 1008.5
20260508003853 60 336 6.0 8.0 0.00 0.00 0.00 29 1008.2
20260508003350 60 326 4.0 5.0 0.00 0.00 0.00 30 1008.6
20260508002848 61 9 3.0 6.0 0.00 0.00 0.00 30 1008.4
20260508002344 61 347 4.0 6.0 0.00 0.00 0.00 29 1008.3
20260508001840 60 324 5.0 6.0 0.00 0.00 0.00 28 1008.5
20260508001336 61 284 6.0 8.0 0.00 0.00 0.00 27 1008.7
20260508000833 62 298 7.0 8.0 0.00 0.00 0.00 27 1008.5
20260508000329 62 320 5.0 7.0 0.00 0.00 0.00 27 1008.5
20260507235826 62 280 5.0 7.0 0.00 0.00 0.00 29 1008.7
20260507235323 61 351 4.0 6.0 0.00 0.00 0.00 28 1008.8
20260507234820 61 348 6.0 7.0 0.00 0.00 0.00 27 1008.6
20260507234317 62 328 6.0 7.0 0.00 0.00 0.00 26 1008.7